Location: Maiatico
(44.7000°N, 10.2000°E)
Time: 23:49:10
(UTC+00:00)

Daily predictions for brighter satellites

Satellite Brightness Start Highest point End
(mag) Time Altitude Azimuth Time Altitude Azimuth Time Altitude Azimuth
Cosmos 44 4.4 16:04:16 10° NW 16:08:48 47° WSW 16:13:04 10° S
Cosmos 1656 4.1 16:05:53 10° NNW 16:11:25 70° WSW 16:16:59 10° SSE
USA 234 3.4 16:05:22 10° ESE 16:11:42 55° NNE 16:18:03 10° NW
SL-24 R/B - RUBIN 2 4.2 16:10:40 10° NNW 16:14:52 35° NE 16:18:51 10° ESE
NOSS 3-1 (A) 4.2 16:08:10 10° NW 16:15:45 88° NE 16:24:37 10° SE
NOAA 6 4.2 16:11:02 10° SE 16:15:57 49° ENE 16:20:54 10° N
ISS -3.1 16:12:58 10° NW 16:16:11 39° NNE 16:19:24 10° E
Cosmos 1408 Rocket 4.3 16:15:54 10° NNW 16:20:12 58° W 16:24:30 10° S
Cosmos 1634 Rocket 4.3 16:16:44 10° SSE 16:22:41 46° E 16:28:41 10° NNE
Cosmos 1666 4.1 16:20:30 10° NNE 16:23:01 17° ENE 16:25:31 10° ESE
Cosmos 1151 Rocket 4.3 16:20:02 10° SE 16:23:16 21° E 16:26:32 10° NE
PSLV R/B 4.4 16:22:45 10° SE 16:26:01 30° ENE 16:29:19 10° N
Cosmos 2026 Rocket 4.1 16:21:26 10° N 16:27:25 53° ENE 16:33:20 10° SSE
CZ-4B R/B 3.0 16:24:35 10° S 16:28:38 78° WSW 16:32:29 10° NNW
Cosmos 1743 Rocket 3.6 16:25:12 10° N 16:29:33 87° WSW 16:33:53 10° S
USA 305 4.4 16:26:09 10° NW 16:29:35 23° N 16:32:40 12° NE
Cosmos 1933 3.3 16:25:46 10° S 16:29:46 67° E 16:33:47 10° NNE
Cosmos 2322 Rocket 3.9 16:27:00 10° N 16:29:50 14° NE 16:32:02 11° ENE
Cosmos 2195 Rocket 4.5 16:25:06 10° N 16:31:15 68° E 16:37:25 10° SSE
Cosmos 1697 Rocket 2.7 16:25:47 10° NNW 16:31:26 86° ENE 16:37:03 10° SSE
Cosmos 858 Rocket 4.5 16:27:31 10° NNW 16:32:48 65° ENE 16:38:01 10° SSE
Okean O Rocket 2.8 16:32:22 10° ESE 16:35:42 21° ENE 16:39:02 10° NNE
SL-08 R/B 4.1 16:31:21 10° N 16:35:54 51° WNW 16:40:23 10° SW
Cosmos 1980 Rocket 2.3 16:30:39 10° NNW 16:36:11 51° ENE 16:41:39 10° SE
FengYun 1-2 T 4.3 16:31:30 10° SSE 16:37:05 89° WSW 16:42:40 10° NNW
Cosmos 540 Rocket 3.4 16:32:15 10° SSW 16:37:20 76° ESE 16:42:27 10° NNE
Cosmos 2369 3.7 16:34:51 10° NNW 16:40:35 69° ENE 16:46:17 10° SE
Cosmos 1666 Rocket 4.2 16:36:48 10° N 16:40:51 34° ENE 16:44:51 10° SE
Cosmos 1809 Rocket 4.4 16:38:48 10° N 16:44:56 80° E 16:51:00 10° SSE
Cosmos 1812 3.3 16:41:35 10° SSE 16:45:07 36° E 16:48:40 10° NNE
SL-16 R/B 3.4 16:44:26 10° N 16:48:46 22° NE 16:51:24 16° E
CORIOLIS 4.1 16:43:43 10° SSE 16:49:07 85° ENE 16:54:35 10° NNW
Cosmos 1570 Rocket 4.5 16:45:50 10° S 16:50:41 40° ESE 16:55:00 13° NE
Meteor 2-21 Rocket 4.5 16:44:44 10° N 16:50:44 56° ENE 16:56:40 10° SSE
Cosmos 2082 Rocket 2.2 16:45:37 10° SSW 16:51:14 66° ESE 16:56:51 10° NNE
Cosmos 1814 Rocket 4.2 16:47:38 10° S 16:52:38 48° ESE 16:57:16 12° NNE
SKYMED 2 4.2 16:53:03 13° NE 16:56:29 34° E 17:00:25 10° SSE
CZ-4B DEB 4.2 16:56:27 10° SSE 17:01:58 88° WSW 17:07:30 10° NNW
USA 306 4.3 16:58:33 10° NW 17:02:03 24° N 17:03:34 20° NE
MOS 1-B Rocket 4.1 16:56:24 10° NNE 17:02:20 62° ESE 17:09:07 10° S
Cosmos 1939 Rocket 4.0 16:59:49 10° S 17:03:48 49° W 17:07:47 10° NNW
Cosmos 2278 3.7 16:58:35 10° NNW 17:04:16 61° ENE 17:09:52 10° SE
Sich 1 3.2 17:00:38 10° NNW 17:04:55 74° W 17:09:14 10° S
Cosmos 1818 4.0 17:00:03 10° NNW 17:05:13 40° NE 17:08:58 17° ESE
ARGOS 3.4 17:00:17 10° SE 17:05:23 45° ENE 17:10:31 10° N
CZ-2C R/B 3.7 17:03:54 10° S 17:05:45 13° SSE 17:07:35 10° SE
Cosmos 1805 Rocket 4.4 17:05:21 10° NNW 17:09:34 51° W 17:13:45 10° S
Cosmos 1833 Rocket 3.7 17:05:57 10° SW 17:11:17 44° WNW 17:16:40 10° NNE
COSMOS 2406 3.9 17:09:32 10° SW 17:15:08 53° WNW 17:20:45 10° NNE
GEOS 3 Rocket 4.5 17:13:45 26° ENE 17:15:11 29° NE 17:19:37 10° NNW
deb Chang Zheng 4 3.5 17:12:31 10° SSE 17:16:45 59° ENE 17:21:00 10° N
USA 307 4.1 17:17:46 10° NW 17:21:22 26° NNE 17:21:59 25° NNE
USA 267 3.7 17:16:34 18° NE 17:21:22 55° NNW 17:27:42 10° WSW
Cosmos 1782 3.9 17:18:35 10° SSW 17:22:25 45° WNW 17:26:16 10° N
Cosmos 2208 Rocket 4.0 17:20:36 10° S 17:25:56 66° ESE 17:29:27 22° NNE
Cosmos 1515 Rocket 4.0 17:22:53 10° SSE 17:26:52 38° E 17:26:52 38° E
CZ-2C R/B 2.4 17:22:11 10° NNE 17:27:23 73° ESE 17:32:32 10° S
SL-08 RB Rocket 3.9 17:23:21 10° SE 17:27:47 47° ENE 17:32:11 10° N
CZ-2D R/B 4.0 17:24:29 10° S 17:28:14 53° W 17:32:00 10° NNW
Meteor 2-6 Rocket 4.1 17:25:24 10° S 17:31:09 73° E 17:36:45 10° NNE
Cosmos 2150 Rocket 4.2 17:26:20 10° N 17:31:19 45° ENE 17:33:12 32° ESE
H-2A R/B 2.3 17:26:15 10° S 17:31:24 68° WSW 17:36:26 10° NNW
CZ-4C R/B 3.0 17:24:46 10° NW 17:32:07 87° NE 17:40:39 10° SE
CZ-4B R/B 3.1 17:27:20 10° SSE 17:32:46 89° WSW 17:38:08 10° NNW
Meteor 2-16 Rocket 4.5 17:26:42 10° N 17:32:50 84° W 17:38:58 10° S
Cosmos 841 Rocket 4.5 17:30:28 10° SW 17:35:24 45° WNW 17:40:21 10° N
YAOGAN 3 4.4 17:33:26 10° SSE 17:37:47 84° ENE 17:42:10 10° NNW
USA 32 4.4 17:35:51 10° SSE 17:40:18 42° E 17:40:18 42° E
USA 308 4.1 17:40:20 10° NW 17:43:39 29° N 17:43:39 29° N
COSMO-SKYMED 1 2.7 17:41:39 20° N 17:44:39 74° WNW 17:48:58 10° SSW
Cosmos 921 Rocket 2.8 17:41:02 10° S 17:45:11 70° ESE 17:45:22 69° E
Lacrosse 5 rocket 1.6 17:41:28 10° NW 17:44:49 49° N 17:44:49 49° N
Cosmos 1125 Rocket 3.5 17:41:22 10° NNW 17:46:33 56° ENE 17:47:31 48° ESE
COSMOS 2455 3.7 17:42:26 10° WSW 17:48:11 45° NW 17:52:28 18° NNE
Cosmos 2279 Rocket 4.4 17:43:22 10° SSW 17:49:31 64° W 17:55:41 10° N
Meteor 2-15 Rocket 4.3 17:45:26 10° S 17:51:29 67° E 17:55:53 20° NNE
Cosmos 1633 Rocket 3.8 17:47:43 10° NNW 17:51:58 52° W 17:56:13 10° S
ATLAS 2AS CENTAUR R/B 4.4 17:47:43 10° NNW 17:52:40 18° N 17:54:01 17° NNE
ISS -2.7 17:49:48 10° WNW 17:53:03 42° SW 17:53:03 42° SW
Cosmos 2360 Rocket 3.5 17:49:18 10° N 17:52:12 24° NNE 17:52:12 24° NNE
USA 234 3.9 17:48:20 10° SSE 17:54:43 54° SW 18:01:07 10° WNW
Cosmos 2266 Rocket 3.9 17:48:31 10° N 17:54:56 78° E 18:01:21 10° SSE
Cosmos 44 Rocket 3.1 17:50:13 10° NW 17:55:10 86° ENE 17:56:03 59° SE
Meteor 1-10 Rocket 4.1 17:51:02 10° S 17:56:50 86° E 18:00:37 22° NNE
Cosmos 1666 4.4 17:55:17 10° NNW 17:58:38 32° W 18:01:58 10° SSW
Meteor 1-11 Rocket 3.6 17:53:06 10° N 17:58:44 72° ENE 18:04:28 10° SSE
USA 305 4.4 18:06:18 10° NW 18:08:40 27° NNW 18:08:40 27° NNW
Okean O Rocket 2.8 18:07:31 10° S 18:11:45 43° W 18:16:01 10° NNW
Feng Yun 1-1 Rocket 4.4 18:06:53 10° SSE 18:12:48 79° WSW 18:18:41 10° NNW
Cosmos 2322 Rocket 2.5 18:09:23 10° NNW 18:13:54 52° N 18:13:54 52° N
Landsat 5 4.3 18:16:56 44° WNW 18:17:06 45° WNW 18:20:53 10° SW
Cosmos 1980 Rocket 4.3 18:15:17 10° NW 18:19:50 25° WSW 18:24:21 10° SSW
SL-16 R/B 2.3 18:27:47 10° NNW 18:33:21 71° WSW 18:33:21 71° WSW
Cosmos 2082 Rocket 4.2 18:31:19 10° W 18:35:48 23° NW 18:38:46 16° N
ATLAS CENTAUR R/B 4.3 18:33:19 10° WNW 18:37:44 20° NNW 18:37:44 20° NNW
CZ-2C R/B 4.1 18:41:28 10° SW 18:42:01 12° SW 18:42:01 12° SW
Cosmos 2333 Rocket 4.4 18:41:41 10° NNW 18:42:44 15° N 18:42:44 15° N
USA 267 4.4 19:03:55 32° NNW 19:03:55 32° NNW 19:09:12 10° WNW
